Time,TemperatureF,DewpointF,PressureIn,WindDirection,WindDirectionDegrees,WindSpeedMPH,WindSpeedGustMPH,Humidity,HourlyPrecipIn,Conditions,Clouds,dailyrainin,SoftwareType,DateUTC
2013-01-27 00:01:00,44.0,23.0,30.04,ESE,116,7.0,13.0,44,0.00,,,0.00,,2013-01-27 06:01:00,
2013-01-27 00:11:00,44.0,23.0,30.04,ESE,116,7.0,13.0,44,0.00,,,0.00,,2013-01-27 06:11:00,
2013-01-27 01:21:00,44.0,28.0,30.02,SSE,155,4.0,6.0,53,0.00,,,0.00,,2013-01-27 07:21:00,
2013-01-27 01:31:00,44.0,28.0,30.02,SSE,155,4.0,6.0,53,0.00,,,0.00,,2013-01-27 07:31:00,
2013-01-27 01:41:00,44.0,28.0,30.02,SSE,155,4.0,6.0,53,0.00,,,0.00,,2013-01-27 07:41:00,
2013-01-27 01:51:00,42.0,32.0,30.02,SSE,160,6.0,6.0,68,0.01,,,0.00,,2013-01-27 07:51:00,
2013-01-27 02:01:00,42.0,32.0,30.02,SSE,160,6.0,6.0,68,0.01,,,0.00,,2013-01-27 08:01:00,
2013-01-27 02:11:00,42.0,32.0,30.02,SSE,160,6.0,6.0,68,0.01,,,0.00,,2013-01-27 08:11:00,
2013-01-27 02:22:00,40.0,33.0,30.01,SE,124,5.0,13.0,77,0.04,,,0.00,,2013-01-27 08:22:00,
2013-01-27 02:31:00,40.0,33.0,30.01,SE,124,5.0,13.0,77,0.04,,,0.00,,2013-01-27 08:31:00,
2013-01-27 02:42:00,40.0,33.0,30.01,SE,124,5.0,13.0,77,0.04,,,0.00,,2013-01-27 08:42:00,
2013-01-27 02:52:00,40.0,34.0,30.00,SSE,154,8.0,8.0,80,0.03,,,0.01,,2013-01-27 08:52:00,
2013-01-27 03:02:00,40.0,34.0,30.00,SSE,154,8.0,8.0,80,0.03,,,0.01,,2013-01-27 09:02:00,
2013-01-27 03:11:00,40.0,34.0,30.00,SSE,154,8.0,8.0,80,0.03,,,0.01,,2013-01-27 09:11:00,
2013-01-27 03:21:00,40.0,35.0,30.00,SSE,149,6.0,8.0,81,0.02,,,0.02,,2013-01-27 09:21:00,
2013-01-27 03:32:00,40.0,35.0,30.00,SSE,149,6.0,8.0,81,0.02,,,0.02,,2013-01-27 09:32:00,
2013-01-27 03:41:00,40.0,35.0,30.00,SSE,149,6.0,8.0,81,0.02,,,0.02,,2013-01-27 09:41:00,
2013-01-27 03:51:00,40.0,35.0,29.98,ESE,120,4.0,5.0,82,0.02,,,0.03,,2013-01-27 09:51:00,
2013-01-27 04:01:00,40.0,35.0,29.98,ESE,120,4.0,5.0,82,0.02,,,0.03,,2013-01-27 10:01:00,
2013-01-27 04:11:00,40.0,35.0,29.98,SSE,161,3.0,4.0,81,0.01,,,0.03,,2013-01-27 10:11:00,
2013-01-27 04:21:00,40.0,35.0,29.98,SSE,161,3.0,4.0,81,0.01,,,0.03,,2013-01-27 10:21:00,
2013-01-27 04:32:00,40.0,35.0,29.98,SSE,161,3.0,4.0,81,0.01,,,0.03,,2013-01-27 10:32:00,
2013-01-27 04:42:00,40.0,35.0,29.98,SSE,161,3.0,4.0,81,0.01,,,0.03,,2013-01-27 10:42:00,
2013-01-27 04:51:00,40.0,34.0,29.98,SE,145,3.0,3.0,80,0.00,,,0.03,,2013-01-27 10:51:00,
2013-01-27 05:01:00,40.0,34.0,29.98,SE,145,3.0,3.0,80,0.00,,,0.03,,2013-01-27 11:01:00,
2013-01-27 05:11:00,40.0,34.0,29.97,ESE,121,4.0,4.0,79,0.00,,,0.03,,2013-01-27 11:11:00,
2013-01-27 05:21:00,40.0,34.0,29.97,ESE,121,4.0,4.0,79,0.00,,,0.03,,2013-01-27 11:21:00,
2013-01-27 05:32:00,40.0,34.0,29.97,ESE,121,4.0,4.0,79,0.00,,,0.03,,2013-01-27 11:32:00,
2013-01-27 05:42:00,40.0,34.0,29.97,ESE,121,4.0,4.0,79,0.00,,,0.03,,2013-01-27 11:42:00,
2013-01-27 05:52:00,40.0,34.0,29.94,SE,141,4.0,6.0,79,0.00,,,0.03,,2013-01-27 11:52:00,
2013-01-27 06:02:00,40.0,34.0,29.94,SE,141,4.0,6.0,79,0.00,,,0.03,,2013-01-27 12:02:00,
2013-01-27 06:11:00,40.0,34.0,29.94,SE,141,4.0,6.0,79,0.00,,,0.03,,2013-01-27 12:11:00,
2013-01-27 06:21:00,41.0,35.0,29.93,SE,134,6.0,7.0,78,0.00,,,0.03,,2013-01-27 12:21:00,
2013-01-27 06:32:00,41.0,35.0,29.93,SE,134,6.0,7.0,78,0.00,,,0.03,,2013-01-27 12:32:00,
2013-01-27 06:42:00,41.0,35.0,29.93,SE,134,6.0,7.0,78,0.00,,,0.03,,2013-01-27 12:42:00,
2013-01-27 06:52:00,41.0,34.0,29.91,SE,126,5.0,8.0,77,0.00,,,0.03,,2013-01-27 12:52:00,
2013-01-27 07:02:00,41.0,34.0,29.91,SE,126,5.0,8.0,77,0.00,,,0.03,,2013-01-27 13:02:00,
2013-01-27 07:11:00,41.0,34.0,29.91,SE,126,5.0,8.0,77,0.00,,,0.03,,2013-01-27 13:11:00,
2013-01-27 07:22:00,41.0,35.0,29.91,SE,138,4.0,7.0,79,0.00,,,0.03,,2013-01-27 13:22:00,
2013-01-27 07:32:00,41.0,35.0,29.91,SE,138,4.0,7.0,79,0.00,,,0.03,,2013-01-27 13:32:00,
2013-01-27 07:42:00,41.0,36.0,29.91,SE,140,6.0,6.0,81,0.00,,,0.03,,2013-01-27 13:42:00,
2013-01-27 07:52:00,41.0,36.0,29.91,SE,140,6.0,6.0,81,0.00,,,0.03,,2013-01-27 13:52:00,
2013-01-27 08:02:00,41.0,36.0,29.91,SE,140,6.0,6.0,81,0.00,,,0.03,,2013-01-27 14:02:00,
2013-01-27 08:11:00,41.0,36.0,29.91,SE,140,6.0,6.0,81,0.00,,,0.03,,2013-01-27 14:11:00,
2013-01-27 08:22:00,41.0,37.0,29.88,SE,135,6.0,7.0,85,0.00,,,0.03,,2013-01-27 14:22:00,
2013-01-27 08:32:00,41.0,37.0,29.88,SE,135,6.0,7.0,85,0.00,,,0.03,,2013-01-27 14:32:00,
2013-01-27 08:42:00,41.0,37.0,29.88,SE,135,6.0,7.0,85,0.00,,,0.03,,2013-01-27 14:42:00,
2013-01-27 08:52:00,41.0,38.0,29.89,SSE,155,6.0,11.0,88,0.00,,,0.03,,2013-01-27 14:52:00,
2013-01-27 09:02:00,41.0,38.0,29.89,SSE,155,6.0,11.0,88,0.00,,,0.03,,2013-01-27 15:02:00,
2013-01-27 09:12:00,41.0,38.0,29.89,SSE,155,6.0,11.0,88,0.00,,,0.03,,2013-01-27 15:12:00,
2013-01-27 09:22:00,42.0,39.0,29.87,SSE,160,7.0,14.0,88,0.00,,,0.03,,2013-01-27 15:22:00,
2013-01-27 09:32:00,42.0,39.0,29.87,SSE,160,7.0,14.0,88,0.00,,,0.03,,2013-01-27 15:32:00,
2013-01-27 09:42:00,42.0,39.0,29.87,SSE,160,7.0,14.0,88,0.00,,,0.03,,2013-01-27 15:42:00,
2013-01-27 09:52:00,42.0,39.0,29.87,SSE,156,5.0,7.0,88,0.00,,,0.03,,2013-01-27 15:52:00,
2013-01-27 10:02:00,42.0,39.0,29.87,SSE,156,5.0,7.0,88,0.00,,,0.03,,2013-01-27 16:02:00,
2013-01-27 10:12:00,42.0,39.0,29.87,SSE,156,5.0,7.0,88,0.00,,,0.03,,2013-01-27 16:12:00,
2013-01-27 10:21:00,43.0,40.0,29.85,SSE,167,4.0,6.0,89,0.00,,,0.03,,2013-01-27 16:21:00,
2013-01-27 10:32:00,43.0,40.0,29.85,SSE,167,4.0,6.0,89,0.00,,,0.03,,2013-01-27 16:32:00,
2013-01-27 10:42:00,43.0,40.0,29.85,SSE,167,4.0,6.0,89,0.00,,,0.03,,2013-01-27 16:42:00,
2013-01-27 10:52:00,45.0,42.0,29.85,SSE,149,7.0,7.0,89,0.00,,,0.03,,2013-01-27 16:52:00,
2013-01-27 11:02:00,45.0,42.0,29.85,SSE,149,7.0,7.0,89,0.00,,,0.03,,2013-01-27 17:02:00,
2013-01-27 11:12:00,45.0,42.0,29.85,SSE,149,7.0,7.0,89,0.00,,,0.03,,2013-01-27 17:12:00,
2013-01-27 11:22:00,47.0,44.0,29.83,SSE,152,4.0,6.0,88,0.00,,,0.03,,2013-01-27 17:22:00,
2013-01-27 11:32:00,47.0,44.0,29.83,SSE,152,4.0,6.0,88,0.00,,,0.03,,2013-01-27 17:32:00,
2013-01-27 11:42:00,47.0,44.0,29.83,SSE,152,4.0,6.0,88,0.00,,,0.03,,2013-01-27 17:42:00,
2013-01-27 11:52:00,49.0,45.0,29.83,SE,136,3.0,7.0,86,0.00,,,0.03,,2013-01-27 17:52:00,
2013-01-27 12:02:00,49.0,45.0,29.83,SE,136,3.0,7.0,86,0.00,,,0.03,,2013-01-27 18:02:00,
2013-01-27 12:11:00,49.0,45.0,29.83,SE,136,3.0,7.0,86,0.00,,,0.03,,2013-01-27 18:11:00,
2013-01-27 12:22:00,51.0,47.0,29.82,SE,136,10.0,10.0,86,0.00,,,0.03,,2013-01-27 18:22:00,
2013-01-27 12:32:00,51.0,47.0,29.82,SE,136,10.0,10.0,86,0.00,,,0.03,,2013-01-27 18:32:00,
2013-01-27 12:42:00,51.0,47.0,29.82,SE,136,10.0,10.0,86,0.00,,,0.03,,2013-01-27 18:42:00,
2013-01-27 12:52:00,52.0,48.0,29.80,SSE,152,7.0,7.0,85,0.00,,,0.03,,2013-01-27 18:52:00,
2013-01-27 13:02:00,52.0,48.0,29.80,SSE,152,7.0,7.0,85,0.00,,,0.03,,2013-01-27 19:02:00,
2013-01-27 13:11:00,52.0,48.0,29.80,SSE,152,7.0,7.0,85,0.00,,,0.03,,2013-01-27 19:11:00,
2013-01-27 13:22:00,53.0,49.0,29.78,SE,124,5.0,7.0,86,0.00,,,0.03,,2013-01-27 19:22:00,
2013-01-27 13:32:00,53.0,49.0,29.78,SE,124,5.0,7.0,86,0.00,,,0.03,,2013-01-27 19:32:00,
2013-01-27 13:42:00,53.0,49.0,29.78,SE,124,5.0,7.0,86,0.00,,,0.03,,2013-01-27 19:42:00,
2013-01-27 13:51:00,54.0,49.0,29.76,SSE,159,6.0,12.0,84,0.00,,,0.03,,2013-01-27 19:51:00,
2013-01-27 14:02:00,54.0,49.0,29.76,SSE,159,6.0,12.0,84,0.00,,,0.03,,2013-01-27 20:02:00,
2013-01-27 14:11:00,54.0,49.0,29.76,SSE,159,6.0,12.0,84,0.00,,,0.03,,2013-01-27 20:11:00,
2013-01-27 14:22:00,56.0,51.0,29.74,SSE,165,4.0,8.0,84,0.00,,,0.03,,2013-01-27 20:22:00,
2013-01-27 14:33:00,56.0,51.0,29.74,SSE,165,4.0,8.0,84,0.00,,,0.03,,2013-01-27 20:33:00,
2013-01-27 14:42:00,56.0,51.0,29.74,SSE,165,4.0,8.0,84,0.00,,,0.03,,2013-01-27 20:42:00,
2013-01-27 14:52:00,57.0,52.0,29.73,SSE,161,5.0,6.0,82,0.00,,,0.03,,2013-01-27 20:52:00,
2013-01-27 15:02:00,57.0,52.0,29.73,SSE,161,5.0,6.0,82,0.00,,,0.03,,2013-01-27 21:02:00,
2013-01-27 15:12:00,57.0,52.0,29.73,SSE,161,5.0,6.0,82,0.00,,,0.03,,2013-01-27 21:12:00,
2013-01-27 15:22:00,59.0,52.0,29.73,SSE,160,5.0,7.0,78,0.00,,,0.03,,2013-01-27 21:22:00,
2013-01-27 15:33:00,59.0,52.0,29.73,SSE,160,5.0,7.0,78,0.00,,,0.03,,2013-01-27 21:33:00,
2013-01-27 15:42:00,59.0,52.0,29.73,SSE,160,5.0,7.0,78,0.00,,,0.03,,2013-01-27 21:42:00,
2013-01-27 15:52:00,59.0,52.0,29.73,SSE,162,5.0,7.0,77,0.00,,,0.03,,2013-01-27 21:52:00,
2013-01-27 16:02:00,59.0,52.0,29.73,SSE,162,5.0,7.0,77,0.00,,,0.03,,2013-01-27 22:02:00,
2013-01-27 16:11:00,59.0,52.0,29.73,SSE,162,5.0,7.0,77,0.00,,,0.03,,2013-01-27 22:11:00,
2013-01-27 16:22:00,59.0,51.0,29.73,South,187,5.0,6.0,74,0.00,,,0.03,,2013-01-27 22:22:00,
2013-01-27 16:32:00,59.0,51.0,29.73,South,187,5.0,6.0,74,0.00,,,0.03,,2013-01-27 22:32:00,
2013-01-27 16:42:00,59.0,51.0,29.73,South,187,5.0,6.0,74,0.00,,,0.03,,2013-01-27 22:42:00,
2013-01-27 16:52:00,59.0,51.0,29.72,SSW,192,6.0,6.0,75,0.00,,,0.03,,2013-01-27 22:52:00,
2013-01-27 17:02:00,59.0,51.0,29.72,SSW,192,6.0,6.0,75,0.00,,,0.03,,2013-01-27 23:02:00,
2013-01-27 17:12:00,59.0,51.0,29.72,SSW,192,6.0,6.0,75,0.00,,,0.03,,2013-01-27 23:12:00,
2013-01-27 17:21:00,59.0,51.0,29.71,South,180,5.0,7.0,74,0.00,,,0.03,,2013-01-27 23:21:00,
2013-01-27 17:32:00,59.0,51.0,29.71,South,180,5.0,7.0,74,0.00,,,0.03,,2013-01-27 23:32:00,
2013-01-27 17:41:00,59.0,51.0,29.71,South,180,5.0,7.0,74,0.00,,,0.03,,2013-01-27 23:41:00,
2013-01-27 17:52:00,58.0,50.0,29.70,SSE,168,6.0,10.0,75,0.00,,,0.03,,2013-01-27 23:52:00,
2013-01-27 18:02:00,58.0,50.0,29.70,SSE,168,6.0,10.0,75,0.00,,,0.03,,2013-01-28 00:02:00,
2013-01-27 18:11:00,58.0,50.0,29.70,SSE,168,6.0,10.0,75,0.00,,,0.03,,2013-01-28 00:11:00,
2013-01-27 18:21:00,58.0,51.0,29.72,South,172,7.0,9.0,77,0.00,,,0.03,,2013-01-28 00:21:00,
2013-01-27 18:32:00,58.0,51.0,29.72,South,172,7.0,9.0,77,0.00,,,0.03,,2013-01-28 00:32:00,
2013-01-27 18:42:00,58.0,51.0,29.72,South,172,7.0,9.0,77,0.00,,,0.03,,2013-01-28 00:42:00,
2013-01-27 18:51:00,58.0,51.0,29.75,South,178,5.0,9.0,77,0.00,,,0.03,,2013-01-28 00:51:00,
2013-01-27 19:02:00,58.0,51.0,29.75,South,178,5.0,9.0,77,0.00,,,0.03,,2013-01-28 01:02:00,
2013-01-27 19:11:00,58.0,51.0,29.75,South,178,5.0,9.0,77,0.00,,,0.03,,2013-01-28 01:11:00,
2013-01-27 19:22:00,58.0,51.0,29.76,South,185,4.0,8.0,78,0.00,,,0.03,,2013-01-28 01:22:00,
2013-01-27 19:33:00,58.0,51.0,29.76,South,185,4.0,8.0,78,0.00,,,0.03,,2013-01-28 01:33:00,
2013-01-27 19:42:00,58.0,51.0,29.76,South,185,4.0,8.0,78,0.00,,,0.03,,2013-01-28 01:42:00,
2013-01-27 19:52:00,58.0,52.0,29.76,SE,146,3.0,5.0,79,0.00,,,0.03,,2013-01-28 01:52:00,
2013-01-27 20:02:00,58.0,52.0,29.76,SE,146,3.0,5.0,79,0.00,,,0.03,,2013-01-28 02:02:00,
2013-01-27 20:11:00,58.0,52.0,29.76,SE,146,3.0,5.0,79,0.00,,,0.03,,2013-01-28 02:11:00,
2013-01-27 20:22:00,58.0,52.0,29.76,South,182,9.0,9.0,79,0.00,,,0.03,,2013-01-28 02:22:00,
2013-01-27 20:32:00,58.0,52.0,29.76,South,182,9.0,9.0,79,0.00,,,0.03,,2013-01-28 02:32:00,
2013-01-27 20:42:00,58.0,52.0,29.76,South,182,9.0,9.0,79,0.00,,,0.03,,2013-01-28 02:42:00,
2013-01-27 20:52:00,58.0,52.0,29.76,South,190,7.0,10.0,80,0.00,,,0.03,,2013-01-28 02:52:00,
2013-01-27 21:02:00,58.0,52.0,29.76,South,190,7.0,10.0,80,0.00,,,0.03,,2013-01-28 03:02:00,
2013-01-27 21:12:00,58.0,52.0,29.76,South,190,7.0,10.0,80,0.00,,,0.03,,2013-01-28 03:12:00,
2013-01-27 21:21:00,58.0,52.0,29.76,SSE,165,5.0,5.0,81,0.00,,,0.03,,2013-01-28 03:21:00,
2013-01-27 21:32:00,58.0,52.0,29.76,SSE,165,5.0,5.0,81,0.00,,,0.03,,2013-01-28 03:32:00,
2013-01-27 21:42:00,58.0,52.0,29.76,SSE,165,5.0,5.0,81,0.00,,,0.03,,2013-01-28 03:42:00,
2013-01-27 21:52:00,58.0,53.0,29.77,South,171,5.0,6.0,83,0.00,,,0.03,,2013-01-28 03:52:00,
2013-01-27 22:02:00,58.0,53.0,29.77,South,171,5.0,6.0,83,0.00,,,0.03,,2013-01-28 04:02:00,
2013-01-27 22:11:00,58.0,53.0,29.77,South,171,5.0,6.0,83,0.00,,,0.03,,2013-01-28 04:11:00,
2013-01-27 22:21:00,59.0,54.0,29.78,SSW,206,7.0,7.0,84,0.00,,,0.03,,2013-01-28 04:21:00,
2013-01-27 22:32:00,59.0,54.0,29.78,SSW,206,7.0,7.0,84,0.00,,,0.03,,2013-01-28 04:32:00,
2013-01-27 22:42:00,59.0,54.0,29.78,SSW,206,7.0,7.0,84,0.00,,,0.03,,2013-01-28 04:42:00,
2013-01-27 22:52:00,59.0,54.0,29.79,SSE,165,4.0,7.0,84,0.00,,,0.03,,2013-01-28 04:52:00,
2013-01-27 23:04:00,59.0,54.0,29.79,SSE,165,4.0,7.0,84,0.00,,,0.03,,2013-01-28 05:04:00,
2013-01-27 23:11:00,59.0,54.0,29.79,SSE,165,4.0,7.0,84,0.00,,,0.03,,2013-01-28 05:11:00,
2013-01-27 23:21:00,59.0,54.0,29.78,South,177,5.0,6.0,84,0.00,,,0.03,,2013-01-28 05:21:00,
2013-01-27 23:32:00,59.0,54.0,29.78,South,177,5.0,6.0,84,0.00,,,0.03,,2013-01-28 05:32:00,
2013-01-27 23:41:00,59.0,54.0,29.78,South,177,5.0,6.0,84,0.00,,,0.03,,2013-01-28 05:41:00,
2013-01-27 23:52:00,59.0,54.0,29.78,South,172,4.0,8.0,85,0.00,,,0.03,,2013-01-28 05:52:00,